Hourly Data Report for June 13, 2020

TORONTO CITY
ONTARIO
Current Station Operator: ECCC - MSC

43°40'00.000" N
79°24'00.000" W
112.50 m
6158355
71508
XTO

Download Data

Hourly Data (June 2020)
Hourly Data Report for June 13, 2020
TIME
LST
Temp Definition
°C
Dew Point Definition
°C
Rel Hum Definition
%
Precip. Amount Definition
mm

Wind Dir Definition
10's deg

Wind Spd Definition
km/h
Visibility Definition
km
Stn Press Definition
kPa
Hmdx Definition


Wind Chill Definition


Weather Definition


00:00 11.2 2.3 54 0.0       101.10     LegendNANA
01:00 10.8 3.0 59 0.0       101.11     LegendNANA
02:00 10.4 4.2 65 0.0       101.13     LegendNANA
03:00 9.9 3.2 63 0.0       101.17     LegendNANA
04:00 10.4 2.3 57 0.0       101.20     LegendNANA
05:00 10.4 1.6 54 0.0       101.24     LegendNANA
06:00 10.7 2.1 55 0.0       101.29     LegendNANA
07:00 11.5 2.1 52 0.0       101.33     LegendNANA
08:00 12.6 1.2 46 0.0       101.36     LegendNANA
09:00 13.8 1.4 43 0.0       101.36     LegendNANA
10:00 14.9 -1.3 33 0.0       101.35     LegendNANA
11:00 15.9 -2.3 29 0.0       101.35     LegendNANA
12:00 16.4 -2.7 27 0.0       101.33     LegendNANA
13:00 15.8 2.6 41 0.0       101.33     LegendNANA
14:00 16.2 2.4 39 0.0       101.30     LegendNANA
15:00 17.1 0.3 32 0.0       101.27     LegendNANA
16:00 16.8 -0.3 31 0.5       101.24     LegendNANA
17:00 16.9 0.5 33 0.3       101.25     LegendNANA
18:00 15.9 -1.6 30 0.2       101.30     LegendNANA
19:00 15.1 -0.5 34 0.0       101.34     LegendNANA
20:00 14.1 -2.0 33 0.0       101.37     LegendNANA
21:00 14.0 1.5 43 0.0       101.42     LegendNANA
22:00 12.8 4.4 57 0.0       101.46     LegendNANA
23:00 12.3 4.5 59 0.0       101.50     LegendNANA

Notes on Data Quality.

Legend

  • E = Estimated
  • M = Missing
  • NA = Not Available*
  • [empty] = Indicates an unobserved value
Date modified: